Regional Weather Roundup
Issued by NWS

Home | Current Version | Previous Version | Text Only | Print | Product List | Glossary Off
Versions: 1 2 3 4 5 6 7 8 9 10 11 12 13 14 15 16 17 18 19 20 21 22 23 24 25 26 27 28 29 30 31 32 33 34 35 36 37 38 39 40 41 42 43 44 45 46 47 48 49 50

000
ASUS43 KIND 190909
RWRIN

WEATHER ROUNDUP FOR INDIANA
NATIONAL WEATHER SERVICE INDIANAPOLIS IN
500 AM EDT FRI SEP 19 2014

NOTE: "FAIR" INDICATES FEW OR NO CLOUDS BELOW 12,000 FEET WITH NO
SIGNIFICANT WEATHER AND/OR OBSTRUCTIONS TO VISIBILITY.

* - STATION DOES NOT REPORT WEATHER SUCH AS PRECIPITATION OR FOG.

+ - STATION NOT QUALITY CONTROLLED BY THE NATIONAL WEATHER SERVICE.
    USE DATA WITH CAUTION...ESPECIALLY DEWPOINT AND RELATIVE
    HUMIDITY OBSERVATIONS.

INZ001>003-010>013-019-020-191000-
NORTHWEST INDIANA

CITY           SKY/WX    TMP DP  RH WIND       PRES   REMARKS
GARY /AIRPORT/ CLEAR     56  51  82 SE6       30.15S
KNOX *+        CLEAR     48  46  91 E3        30.16F
LA PORTE +       N/A     46  46 100 E3        30.18S FOG
MICHIGAN CITY+ CLEAR     54  52  94 SE3       30.17S
MONTICELLO +   CLEAR     51  49  93 E3        30.15F
RENSSELAER +   CLEAR     48  48 100 NE3       30.15F
VALPARAISO     CLEAR     48  46  93 E6        30.17S

$$

LMZ046-743>745-191000-
SOUTHERN LAKE MICHIGAN

STATION/POSITION TIME  TEMP WIND        PRES
                       AIR  DIR/SP/G
                 (UTC) (F)  (DEG/KT/KT) (MB)
MICHIGAN CITY    0900   57  110/ 10/ 13   N/A

$$

INZ004-005-014>016-021>024-191000-
NORTH CENTRAL INDIANA

CITY           SKY/WX    TMP DP  RH WIND       PRES   REMARKS
GOSHEN         CLEAR     53  50  89 E6        30.19S FOG
LOGANSPORT +   CLEAR     46  45  93 E3        30.16F
PERU/GRISSOM   CLEAR     51  51 100 E5        30.16S
ROCHESTER +    CLEAR     54  50  87 E8        30.17F
SOUTH BEND     CLEAR     53  50  89 E8        30.19
WARSAW +       CLEAR     50  50 100 CALM      30.19S FOG

$$

INZ006>009-017-018-025>027-191000-
NORTHEAST INDIANA

CITY           SKY/WX    TMP DP  RH WIND       PRES   REMARKS
ANGOLA *+      CLEAR     48  48 100 SE7       30.20F
AUBURN +         N/A     48  46  93 E3        30.21S FOG
FORT WAYNE     PTCLDY    50  48  93 E6        30.20S FOG
HUNTINGTON +   CLEAR     47  47  99 E3        30.18S FOG

$$

INZ028-029-035-036-043>045-051>053-191000-
WEST CENTRAL INDIANA

CITY           SKY/WX    TMP DP  RH WIND       PRES   REMARKS
GREENCASTLE +  CLEAR     50  46  87 NE3       30.15R
LAFAYETTE      CLEAR     50  47  89 NE3       30.14S
TERRE HAUTE    CLEAR     47  45  93 N3        30.13S

$$

INZ030>032-037>040-046>048-054>057-064-065-191000-
CENTRAL INDIANA

CITY           SKY/WX    TMP DP  RH WIND       PRES   REMARKS
CP ATTERBURY + FOG       43  43 100 CALM      30.15S VSB 1
FRANKFORT +    CLEAR    N/A N/A N/A E5        30.15F
GREENWOOD *+   PTCLDY    54  48  82 E5        30.14F
INDIANAPOLIS   CLEAR     54  47  77 E8        30.13F
-EAGLE CREEK   CLEAR     53  47  79 CALM      30.14F
KOKOMO *+      CLEAR     48  46  93 E6        30.17S
MARION +       CLEAR     50  47  88 E6        30.17S
MT COMFORT *+  CLEAR     50  48  93 E6        30.15F
SHELBYVILLE    CLEAR     51  46  83 E7        30.14F
ZIONSVILLE +   CLEAR     50  46  85 E3        30.16R

$$

INZ033-034-041-042-049-050-058-059-191000-
EAST CENTRAL INDIANA

CITY           SKY/WX    TMP DP  RH WIND       PRES   REMARKS
MUNCIE         CLEAR     49  46  90 E6        30.16F

$$

INZ060-061-067>069-081>083-085>088-191000-
SOUTHWEST INDIANA

CITY           SKY/WX    TMP DP  RH WIND       PRES   REMARKS
EVANSVILLE     CLEAR     56  50  80 CALM      30.09S
WASHINGTON +   CLEAR     48  47  97 CALM      30.11S

$$

INZ062-063-066-070>080-084-089>092-191000-
SOUTH CENTRAL AND SOUTHEAST INDIANA

CITY           SKY/WX    TMP DP  RH WIND       PRES   REMARKS
BLOOMINGTON    CLEAR     47  45  93 S3        30.13S

$$




USA.gov is the U.S. government's official web portal to all federal, state and local government web resources and services.